Wind_Speed
9 10 10 11 12 12 13 13 14 14 15 15 15 16 17 17 17 18 18 18 18 18 18 18 18 18 18 18 18 18 19 19 19 19 19 19 19 20 20 20 20 20 20
8 8 9 10 10 11 12 13 13 14 14 15 15 16 16 17 17 17 17 18 18 18 18 18 18 18 18 19 19 19 19 19 20 20 20 20 20 21 21 21 22 22 22
6 7 7 8 9 10 11 12 13 13 14 14 15 15 16 16 17 17 17 17 18 18 18 18 19 19 19 19 19 20 20 20 20 21 21 21 21 22 22 22 23 23 23
6 6 7 8 9 10 11 12 13 13 14 15 15 16 17 17 17 18 18 18 18 18 18 19 19 20 20 20 20 20 20 20 21 21 21 22 22 22 22 23 23 23 23
6 7 8 9 10 11 12 13 13 14 14 15 16 16 17 17 18 18 18 18 18 18 19 19 19 20 20 20 21 21 21 21 21 22 22 22 23 23 23 23 23 24 24
7 7 8 9 10 10 11 12 13 13 14 15 15 16 16 17 17 17 18 18 19 19 19 19 20 20 20 21 21 22 22 22 22 23 23 23 23 23 24 24 24 24 24
7 8 9 9 10 11 12 13 13 14 15 15 16 16 17 17 18 18 18 19 19 20 20 21 21 21 22 22 22 22 23 23 23 23 23 24 24 24 24 24 25 25 25
9 10 10 11 12 13 13 14 15 16 16 17 17 18 18 19 19 19 20 20 20 21 21 22 22 23 23 23 24 24 24 24 25 25 25 25 25 26 26 26 26 26 27
11 12 13 13 14 15 15 16 17 18 18 19 19 19 20 20 21 21 21 21 22 22 23 23 24 24 24 25 25 25 26 26 27 27 27 27 28 28 28 28 28 28 29
13 14 15 15 16 16 17 18 18 19 20 20 20 21 21 21 22 22 22 23 23 23 24 24 25 25 25 26 26 26 27 27 28 28 29 29 30 30 30 30 31 31 31
15 15 16 17 17 18 18 19 19 20 20 21 21 22 22 22 22 23 23 24 24 25 25 25 25 25 26 26 27 27 28 28 29 29 30 30 31 31 32 32 33 33 33
16 16 17 18 19 19 19 20 20 21 21 21 22 22 23 23 23 23 24 24 24 25 25 25 26 26 27 27 28 28 28 29 30 30 30 31 31 32 33 33 34 35 35
18 18 18 19 19 20 21 21 21 22 22 22 23 23 23 23 24 24 24 25 25 25 26 26 27 27 27 28 29 29 30 30 31 31 32 32 33 33 34 34 35 36 37
20 20 20 20 21 21 22 23 23 23 23 24 24 24 24 25 25 25 26 26 26 26 27 27 27 28 28 29 29 30 31 31 32 33 33 33 34 34 34 35 36 36 37
23 23 23 23 23 23 24 24 24 24 25 25 26 26 26 26 27 27 27 27 27 28 28 28 29 29 29 30 30 30 31 32 33 33 33 34 34 35 35 36 36 36 37
25 25 25 25 25 25 25 26 26 26 26 27 27 27 27 28 28 28 28 28 28 28 29 29 30 30 30 31 31 32 32 33 33 34 34 35 35 35 36 37 37 38 38
27 27 27 27 26 27 27 27 27 27 27 28 28 29 29 29 29 29 29 29 29 30 30 30 31 31 32 32 32 33 33 34 34 35 35 36 36 36 37 37 38 39 39
29 28 29 28 29 29 29 29 29 29 29 29 30 30 30 30 30 30 30 30 31 31 31 32 32 32 32 33 33 34 34 35 35 36 36 37 37 37 38 38 39 39 40
30 30 30 30 30 30 30 30 30 30 30 30 30 31 31 31 31 31 31 32 32 32 32 33 33 33 33 34 34 35 36 36 37 37 37 38 38 39 39 39 40 41 41
31 31 31 31 32 32 32 32 32 31 31 31 31 31 31 31 31 31 32 32 33 33 33 33 34 34 34 35 35 36 37 37 38 38 39 39 40 41 41 42 42 42 43
33 33 33 33 32 32 33 33 33 32 32 31 31 31 31 31 32 32 33 33 33 34 34 34 35 35 36 36 36 37 37 38 39 40 41 42 42 43 43 44 44 44 45
34 33 33 33 33 33 33 33 33 32 32 31 31 31 32 32 33 33 33 34 34 34 35 35 36 36 37 37 37 37 38 39 40 41 43 44 44 45 45 45 46 46 47
33 33 33 33 33 33 33 33 33 32 32 32 32 32 32 33 33 34 34 35 35 36 36 36 37 37 38 38 39 39 39 39 40 42 44 45 46 46 47 47 48 49 49
34 34 34 34 33 33 33 33 32 32 32 32 32 32 33 33 34 34 35 36 36 37 37 38 38 39 39 40 41 42 42 43 43 42 42 44 46 47 48 49 50 51 52
33 33 33 34 34 33 33 32 32 32 33 33 32 33 33 34 34 35 35 36 37 38 38 39 39 40 41 42 42 43 44 44 45 44 43 44 45 47 48 50 51 52 53
32 33 33 32 32 32 32 32 32 32 32 33 33 33 34 34 35 36 37 38 38 39 39 40 41 41 42 43 44 44 45 45 46 46 46 46 46 47 49 51 52 53 54
Wind_Direction
253 258 259 260 260 260 260 261 262 264 266 268 270 271 272 273 274 276 276 277 277 278 278 278 278 279 279 280 280 280 281 280 279 278 278 277 276 276 275 274 273 272 272
254 260 262 262 265 265 265 266 268 269 271 273 273 274 274 275 276 277 278 279 279 279 279 280 280 280 281 282 282 282 282 281 280 280 279 278 277 276 276 275 274 273 272
257 262 265 267 268 270 271 273 274 274 275 276 277 277 278 278 279 279 281 281 281 281 281 281 281 282 282 283 283 283 283 282 282 281 280 279 279 278 277 276 276 275 274
265 267 270 271 273 275 276 277 278 277 277 279 280 281 281 281 282 282 282 282 281 281 282 283 283 283 283 284 284 284 283 283 283 282 281 280 280 279 279 278 277 276 275
269 272 276 277 277 278 278 279 279 279 280 282 282 283 283 283 284 284 284 284 284 284 284 284 284 284 284 285 285 285 284 284 284 283 282 282 282 281 280 279 278 277 276
274 277 279 281 282 281 281 281 282 282 283 284 284 284 284 284 284 285 284 284 285 285 285 285 286 286 286 286 285 285 284 284 284 283 282 282 282 282 281 280 279 278 277
279 280 282 283 284 284 283 282 282 284 284 285 285 285 285 285 284 284 284 284 284 284 285 285 285 286 286 286 285 285 284 283 283 282 282 281 281 281 280 279 278 278 277
283 283 284 284 285 285 284 283 283 283 284 284 285 285 285 285 285 284 284 284 284 284 285 285 285 285 285 285 285 284 284 283 282 282 281 281 280 280 279 278 278 277 276
282 283 283 283 284 284 285 285 284 284 284 284 283 283 284 284 284 284 284 284 284 285 285 285 285 285 285 285 284 284 283 282 282 281 280 280 279 279 278 278 277 276 276
281 282 282 283 283 283 284 285 285 283 283 283 283 283 283 283 283 283 283 283 284 284 284 285 285 284 284 284 284 284 283 282 282 281 280 279 278 278 277 276 276 275 274
280 282 282 283 283 284 285 285 285 284 284 284 284 283 283 283 283 283 283 284 284 284 284 285 284 284 284 284 284 283 283 283 282 281 280 279 278 278 277 276 275 274 274
281 281 282 283 284 284 285 285 286 285 285 285 285 284 283 284 284 284 284 285 285 285 285 284 284 285 285 285 284 284 283 282 281 281 280 280 279 278 277 277 276 275 274
282 281 281 282 283 284 285 285 286 286 285 284 284 284 284 284 285 285 286 286 286 286 286 286 285 285 285 285 285 284 284 283 282 281 280 280 279 279 278 278 277 276 275
282 282 281 281 281 282 284 284 285 285 285 284 284 284 284 285 285 285 286 287 287 287 287 287 287 286 286 285 285 285 284 284 283 282 281 280 280 279 279 278 278 277 276
281 281 281 281 281 283 284 284 284 284 284 284 285 285 285 286 286 286 287 287 288 288 288 288 288 288 287 287 286 286 285 285 284 283 282 281 280 280 279 278 278 277 277
279 279 279 279 280 281 283 284 284 283 284 284 284 285 285 286 286 286 286 287 287 288 289 289 289 288 288 288 288 288 287 286 285 284 283 282 281 280 279 279 278 278 277
278 278 278 278 278 280 281 282 283 283 283 283 284 284 285 285 285 286 287 288 288 289 289 289 289 289 289 289 289 288 288 287 286 285 285 284 283 282 281 280 279 279 278
277 278 278 278 278 279 280 281 282 282 282 283 283 284 285 285 285 286 288 288 289 289 290 290 290 290 289 290 290 289 289 288 287 287 286 285 284 283 282 281 280 280 279
275 277 277 277 278 279 280 280 281 281 281 281 282 283 284 284 285 287 288 289 289 290 290 290 290 290 290 290 290 290 289 289 288 288 287 286 286 285 284 283 282 281 281
274 276 277 277 277 278 279 279 280 280 280 281 281 282 283 284 286 287 288 289 289 290 290 290 291 291 290 291 291 290 290 289 289 289 288 288 287 286 285 285 284 283 282
273 275 276 277 277 277 278 278 279 279 279 280 281 283 284 285 286 287 288 289 290 290 290 290 291 291 291 291 291 291 290 290 290 289 289 289 288 287 286 285 285 284 283
273 274 275 276 276 276 277 278 279 279 279 279 281 281 283 285 287 287 289 290 290 290 291 291 291 291 291 291 291 291 290 290 290 290 290 289 289 288 287 286 285 284 284
272 274 275 275 276 276 276 277 277 277 277 279 280 281 283 285 287 288 289 290 291 291 292 292 292 292 292 292 292 291 290 289 289 290 290 289 289 288 288 288 287 286 285
272 273 274 274 275 275 276 276 276 276 277 279 280 282 284 285 287 288 289 290 291 292 292 293 293 293 293 293 293 292 292 291 290 288 288 288 288 288 288 288 287 286 286
272 272 273 274 274 275 274 275 276 277 278 279 280 282 284 286 287 289 290 291 292 292 293 293 293 294 294 294 294 293 293 293 292 291 288 288 287 288 288 288 287 287 286
271 271 272 273 273 274 274 275 276 276 278 279 281 283 285 287 288 290 291 292 293 293 293 294 294 294 294 295 295 294 294 293 292 292 291 290 289 288 288 288 288 288 287
Height
5884 5884 5884 5884 5884 5884 5884 5883 5883 5883 5883 5883 5883 5882 5882 5882 5881 5881 5880 5879 5879 5878 5877 5876 5876 5875 5875 5874 5873 5873 5872 5872 5871 5870 5870 5869 5869 5868 5868 5867 5867 5867 5866
5882 5882 5882 5882 5882 5882 5882 5882 5881 5881 5881 5881 5880 5880 5880 5879 5879 5878 5878 5877 5876 5875 5875 5874 5873 5872 5872 5871 5871 5870 5869 5869 5868 5867 5867 5866 5866 5865 5865 5864 5864 5863 5863
5881 5881 5881 5881 5881 5880 5880 5880 5880 5880 5879 5879 5878 5878 5878 5877 5876 5876 5875 5874 5873 5873 5872 5871 5870 5870 5869 5868 5868 5867 5866 5865 5865 5864 5863 5863 5862 5861 5861 5860 5860 5860 5859
5880 5880 5880 5879 5879 5879 5878 5878 5878 5878 5877 5877 5876 5876 5875 5875 5874 5873 5873 5872 5871 5870 5869 5868 5868 5867 5866 5865 5864 5864 5863 5862 5861 5860 5860 5859 5858 5858 5857 5857 5856 5856 5855
5879 5879 5878 5878 5878 5877 5877 5876 5876 5876 5875 5875 5874 5874 5873 5872 5871 5871 5870 5869 5868 5867 5866 5866 5865 5864 5863 5862 5861 5860 5859 5858 5858 5857 5856 5855 5854 5854 5853 5853 5852 5851 5851
5877 5877 5877 5876 5876 5875 5875 5874 5874 5873 5873 5872 5872 5871 5870 5870 5869 5868 5867 5866 5865 5864 5863 5862 5861 5860 5859 5858 5857 5856 5855 5854 5854 5853 5852 5851 5850 5850 5849 5848 5848 5847 5846
5876 5875 5875 5875 5874 5873 5873 5872 5872 5871 5870 5870 5869 5868 5867 5867 5866 5865 5864 5863 5862 5861 5860 5859 5857 5856 5855 5855 5853 5852 5851 5850 5849 5848 5847 5846 5846 5845 5844 5844 5843 5842 5842
5874 5873 5873 5872 5872 5871 5871 5870 5869 5868 5868 5867 5866 5865 5864 5863 5862 5861 5860 5859 5858 5857 5856 5855 5854 5852 5851 5850 5849 5848 5847 5846 5845 5843 5842 5842 5841 5840 5839 5839 5838 5837 5837
5872 5871 5871 5870 5869 5869 5868 5867 5866 5866 5865 5864 5863 5862 5861 5860 5859 5858 5857 5855 5854 5853 5852 5851 5849 5848 5847 5845 5844 5843 5842 5841 5839 5838 5837 5836 5835 5835 5834 5833 5832 5832 5831
5869 5869 5868 5867 5866 5866 5865 5864 5863 5862 5861 5860 5859 5858 5857 5856 5855 5854 5852 5851 5850 5849 5847 5846 5844 5843 5842 5840 5839 5838 5836 5835 5834 5833 5831 5830 5830 5829 5828 5827 5826 5826 5825
5866 5866 5865 5864 5863 5862 5861 5860 5859 5858 5857 5856 5855 5854 5853 5852 5850 5849 5848 5847 5845 5844 5843 5841 5840 5838 5837 5835 5834 5832 5831 5829 5828 5827 5825 5824 5823 5822 5821 5820 5820 5819 5818
5863 5862 5861 5860 5859 5859 5858 5857 5855 5854 5853 5852 5851 5850 5849 5847 5846 5845 5843 5842 5841 5839 5837 5836 5834 5833 5831 5829 5828 5826 5825 5823 5822 5820 5819 5818 5817 5815 5814 5813 5813 5812 5811
5860 5859 5858 5857 5856 5855 5854 5852 5851 5850 5849 5848 5847 5846 5844 5843 5841 5840 5838 5837 5835 5834 5832 5830 5829 5827 5825 5823 5822 5820 5818 5817 5815 5814 5813 5811 5810 5809 5807 5806 5805 5804 5803
5855 5854 5854 5853 5852 5850 5849 5848 5847 5846 5844 5843 5842 5841 5839 5838 5837 5835 5834 5832 5830 5828 5827 5825 5823 5821 5819 5817 5815 5813 5812 5810 5808 5807 5806 5804 5803 5802 5800 5799 5797 5796 5795
5851 5850 5849 5848 5847 5846 5845 5843 5842 5841 5840 5838 5837 5836 5834 5833 5831 5830 5828 5826 5824 5823 5821 5819 5817 5815 5813 5811 5809 5807 5805 5803 5801 5799 5798 5797 5796 5794 5793 5791 5790 5788 5787
5845 5845 5844 5843 5842 5841 5840 5838 5837 5836 5835 5833 5832 5830 5829 5827 5826 5824 5822 5820 5819 5817 5815 5812 5810 5808 5806 5804 5802 5800 5797 5795 5794 5792 5790 5789 5787 5786 5784 5783 5781 5780 5778
5840 5839 5838 5837 5836 5835 5834 5833 5832 5830 5829 5827 5826 5824 5823 5821 5820 5818 5816 5814 5812 5810 5808 5806 5803 5801 5799 5797 5795 5792 5790 5788 5786 5784 5782 5780 5779 5777 5776 5774 5773 5771 5769
5834 5833 5832 5831 5830 5829 5828 5827 5826 5824 5823 5822 5820 5818 5817 5815 5813 5811 5810 5808 5806 5803 5801 5799 5797 5794 5792 5790 5787 5785 5782 5780 5778 5776 5774 5772 5770 5768 5767 5765 5763 5762 5760
5828 5827 5826 5825 5824 5823 5822 5821 5819 5818 5817 5815 5814 5812 5810 5809 5807 5805 5803 5801 5799 5796 5794 5792 5789 5787 5785 5782 5779 5777 5774 5772 5769 5767 5765 5763 5761 5759 5757 5755 5754 5752 5750
5821 5820 5819 5818 5817 5816 5815 5814 5813 5811 5810 5809 5807 5806 5804 5802 5800 5798 5796 5794 5791 5789 5787 5785 5782 5780 5777 5775 5772 5769 5766 5763 5761 5758 5756 5754 5751 5749 5747 5745 5743 5742 5740
5814 5813 5812 5811 5810 5809 5808 5807 5806 5804 5803 5802 5800 5799 5797 5795 5793 5791 5789 5787 5784 5782 5780 5777 5775 5772 5770 5767 5764 5761 5758 5755 5752 5749 5746 5744 5742 5739 5737 5735 5733 5731 5729
5806 5805 5804 5803 5803 5802 5801 5799 5798 5797 5796 5795 5793 5791 5790 5788 5786 5784 5782 5779 5777 5774 5772 5769 5767 5764 5761 5758 5756 5753 5751 5748 5743 5740 5736 5733 5731 5728 5726 5724 5721 5719 5717
5798 5797 5797 5796 5795 5794 5793 5792 5791 5790 5788 5787 5786 5784 5782 5780 5778 5776 5774 5772 5769 5767 5764 5761 5758 5756 5753 5750 5747 5744 5742 5739 5736 5732 5727 5723 5720 5717 5714 5712 5709 5706 5704
5790 5790 5789 5788 5787 5786 5785 5784 5783 5782 5781 5780 5778 5777 5775 5773 5771 5769 5766 5764 5761 5758 5756 5753 5750 5747 5744 5741 5738 5734 5731 5728 5726 5724 5719 5714 5710 5706 5703 5700 5697 5694 5691
5782 5781 5781 5780 5779 5778 5778 5777 5776 5775 5774 5772 5771 5769 5767 5765 5763 5761 5758 5755 5753 5750 5747 5744 5741 5738 5734 5731 5728 5725 5721 5718 5714 5712 5710 5705 5701 5696 5692 5688 5684 5681 5678
5774 5773 5773 5772 5771 5771 5770 5769 5768 5767 5766 5765 5763 5761 5759 5757 5755 5752 5750 5747 5744 5741 5738 5735 5732 5728 5725 5721 5717 5714 5710 5707 5703 5700 5697 5694 5691 5686 5681 5676 5672 5668 5665